| time (UTC) | temp C | wind direction | speed KPH | gust KPH | rain 1hr cm | rain 24hr cm | rain mn cm | humidity % | barometer mb |
| 20260502191337 | 18 | 147 | 0.0 | 3.2 | 0.00 | 0.00 | 0.00 | 64 | 1013.3 |
| 20260502190821 | 18 | 131 | 0.0 | 9.7 | 0.00 | 0.00 | 0.00 | 65 | 1013.4 |
| 20260502190322 | 18 | 231 | 3.2 | 9.7 | 0.00 | 0.00 | 0.00 | 66 | 1013.4 |
| 20260502185822 | 18 | 120 | 0.0 | 8.0 | 0.00 | 0.00 | 0.00 | 67 | 1013.5 |
| 20260502185329 | 17 | 232 | 0.0 | 8.0 | 0.00 | 0.00 | 0.00 | 67 | 1013.6 |
| 20260502184815 | 17 | 147 | 0.0 | 8.0 | 0.00 | 0.00 | 0.00 | 69 | 1013.6 |
| 20260502184335 | 16 | 136 | 0.0 | 8.0 | 0.00 | 0.00 | 0.00 | 71 | 1013.8 |
| 20260502183832 | 16 | 265 | 0.0 | 3.2 | 0.00 | 0.00 | 0.00 | 72 | 1013.9 |
| 20260502183334 | 16 | 233 | 0.0 | 4.8 | 0.00 | 0.00 | 0.00 | 73 | 1013.9 |
| 20260502182821 | 15 | 260 | 0.0 | 8.0 | 0.00 | 0.00 | 0.00 | 74 | 1013.9 |
| 20260502182320 | 15 | 264 | 3.2 | 8.0 | 0.00 | 0.00 | 0.00 | 73 | 1013.9 |
| 20260502181829 | 15 | 263 | 3.2 | 8.0 | 0.00 | 0.00 | 0.00 | 72 | 1014.0 |
| 20260502181331 | 15 | 235 | 1.6 | 4.8 | 0.00 | 0.00 | 0.00 | 72 | 1013.9 |
| 20260502180815 | 15 | 333 | 0.0 | 1.6 | 0.00 | 0.00 | 0.00 | 73 | 1014.0 |
| 20260502180335 | 15 | 221 | 0.0 | 1.6 | 0.00 | 0.00 | 0.00 | 75 | 1014.1 |
| 20260502170335 | 13 | 246 | 0.0 | 0.0 | 0.00 | 0.00 | 0.00 | 79 | 1014.4 |
| 20260502164319 | 13 | 105 | 1.6 | 3.2 | 0.00 | 0.00 | 0.00 | 78 | 1014.4 |
| 20260502163851 | 13 | 103 | 0.0 | 0.0 | 0.00 | 0.00 | 0.00 | 78 | 1014.4 |
| 20260502163321 | 13 | 103 | 0.0 | 1.6 | 0.00 | 0.00 | 0.00 | 79 | 1014.5 |
| 20260502162833 | 13 | 101 | 0.0 | 0.0 | 0.00 | 0.00 | 0.00 | 79 | 1014.6 |
| 20260502162324 | 13 | 101 | 0.0 | 0.0 | 0.00 | 0.00 | 0.00 | 80 | 1014.6 |
| 20260502161816 | 13 | 101 | 0.0 | 0.0 | 0.00 | 0.00 | 0.00 | 80 | 1014.7 |
| 20260502161347 | 13 | 101 | 0.0 | 0.0 | 0.00 | 0.00 | 0.00 | 81 | 1014.7 |
| 20260502160818 | 13 | 101 | 0.0 | 0.0 | 0.00 | 0.00 | 0.00 | 81 | 1014.7 |
| 20260502160328 | 12 | 101 | 0.0 | 3.2 | 0.00 | 0.00 | 0.00 | 82 | 1014.7 |
| 20260502152324 | 11 | 236 | 0.0 | 0.0 | 0.00 | 0.00 | 0.00 | 85 | 1014.7 |
| 20260502151816 | 11 | 236 | 0.0 | 0.0 | 0.00 | 0.00 | 0.00 | 87 | 1014.6 |
| 20260502151328 | 11 | 263 | 0.0 | 1.6 | 0.00 | 0.00 | 0.00 | 87 | 1014.7 |
| 20260502150824 | 11 | 266 | 0.0 | 1.6 | 0.00 | 0.00 | 0.00 | 87 | 1014.5 |
| 20260502150315 | 11 | 266 | 0.0 | 0.0 | 0.00 | 0.00 | 0.00 | 87 | 1014.6 |
| 20260502130326 | 9 | 66 | 0.0 | 0.0 | 0.00 | 0.00 | 0.00 | 89 | 1014.2 |
| 20260502123324 | 10 | 66 | 0.0 | 0.0 | 0.00 | 0.00 | 0.00 | 88 | 1014.3 |
| 20260502122837 | 10 | 66 | 0.0 | 1.6 | 0.00 | 0.00 | 0.00 | 88 | 1014.3 |
| 20260502122328 | 10 | 66 | 0.0 | 0.0 | 0.00 | 0.00 | 0.00 | 87 | 1014.3 |
| 20260502121820 | 10 | 66 | 0.0 | 0.0 | 0.00 | 0.00 | 0.00 | 87 | 1014.3 |
| 20260502121332 | 10 | 66 | 0.0 | 0.0 | 0.00 | 0.00 | 0.00 | 87 | 1014.3 |
| 20260502120824 | 10 | 66 | 0.0 | 0.0 | 0.00 | 0.00 | 0.00 | 87 | 1014.4 |
| 20260502120320 | 10 | 66 | 0.0 | 0.0 | 0.00 | 0.00 | 0.00 | 87 | 1014.3 |
| 20260502115832 | 10 | 66 | 0.0 | 0.0 | 0.00 | 0.00 | 0.00 | 87 | 1014.3 |
| 20260502115325 | 10 | 289 | 0.0 | 0.0 | 0.00 | 0.00 | 0.00 | 87 | 1014.3 |
| 20260502114836 | 10 | 289 | 0.0 | 0.0 | 0.00 | 0.00 | 0.00 | 87 | 1014.4 |
| 20260502114328 | 10 | 289 | 0.0 | 0.0 | 0.00 | 0.00 | 0.00 | 88 | 1014.3 |
| 20260502113818 | 10 | 289 | 0.0 | 0.0 | 0.00 | 0.00 | 0.00 | 88 | 1014.3 |
| 20260502113331 | 10 | 289 | 0.0 | 0.0 | 0.00 | 0.00 | 0.00 | 88 | 1014.4 |
| 20260502112823 | 10 | 289 | 0.0 | 0.0 | 0.00 | 0.00 | 0.00 | 87 | 1014.5 |
| 20260502112320 | 10 | 289 | 0.0 | 0.0 | 0.00 | 0.00 | 0.00 | 88 | 1014.5 |
| 20260502111833 | 10 | 289 | 0.0 | 0.0 | 0.00 | 0.00 | 0.00 | 87 | 1014.5 |
| 20260502111326 | 10 | 289 | 0.0 | 0.0 | 0.00 | 0.00 | 0.00 | 87 | 1014.5 |
| 20260502110819 | 10 | 289 | 0.0 | 0.0 | 0.00 | 0.00 | 0.00 | 87 | 1014.5 |
| 20260502110331 | 10 | 289 | 0.0 | 0.0 | 0.00 | 0.00 | 0.00 | 87 | 1014.5 |
| 20260502105823 | 10 | 289 | 0.0 | 0.0 | 0.00 | 0.00 | 0.00 | 86 | 1014.4 |
| 20260502105315 | 10 | 289 | 0.0 | 0.0 | 0.00 | 0.00 | 0.00 | 86 | 1014.4 |
| 20260502104848 | 10 | 289 | 0.0 | 0.0 | 0.00 | 0.00 | 0.00 | 86 | 1014.6 |
| 20260502104319 | 10 | 289 | 0.0 | 0.0 | 0.00 | 0.00 | 0.00 | 85 | 1014.5 |
| 20260502103837 | 10 | 289 | 0.0 | 0.0 | 0.00 | 0.00 | 0.00 | 86 | 1014.7 |
| 20260502103328 | 10 | 289 | 0.0 | 0.0 | 0.00 | 0.00 | 0.00 | 85 | 1014.6 |
| 20260502102818 | 10 | 289 | 0.0 | 0.0 | 0.00 | 0.00 | 0.00 | 85 | 1014.6 |
| 20260502102330 | 10 | 289 | 0.0 | 0.0 | 0.00 | 0.00 | 0.00 | 84 | 1014.7 |
| 20260502101823 | 10 | 289 | 0.0 | 0.0 | 0.00 | 0.00 | 0.00 | 85 | 1014.7 |
| 20260502101314 | 10 | 289 | 0.0 | 0.0 | 0.00 | 0.00 | 0.00 | 85 | 1014.7 |
| 20260502100826 | 10 | 289 | 0.0 | 0.0 | 0.00 | 0.00 | 0.00 | 85 | 1014.7 |
| 20260502100317 | 10 | 289 | 0.0 | 0.0 | 0.00 | 0.00 | 0.00 | 85 | 1014.7 |
| 20260502091326 | 11 | 289 | 0.0 | 0.0 | 0.00 | 0.00 | 0.00 | 83 | 1015.1 |
| 20260502090822 | 11 | 289 | 0.0 | 0.0 | 0.00 | 0.00 | 0.00 | 83 | 1015.1 |
| 20260502090315 | 11 | 289 | 0.0 | 0.0 | 0.00 | 0.00 | 0.00 | 82 | 1015.1 |
| 20260502071326 | 12 | 97 | 0.0 | 0.0 | 0.00 | 0.00 | 0.00 | 75 | 1015.8 |
| 20260502070838 | 13 | 97 | 0.0 | 0.0 | 0.00 | 0.00 | 0.00 | 74 | 1015.7 |
| 20260502070329 | 13 | 97 | 0.0 | 0.0 | 0.00 | 0.00 | 0.00 | 73 | 1015.7 |
| 20260502065822 | 13 | 97 | 0.0 | 1.6 | 0.00 | 0.00 | 0.00 | 72 | 1015.7 |
| 20260502065317 | 13 | 97 | 0.0 | 1.6 | 0.00 | 0.00 | 0.00 | 71 | 1015.8 |
| 20260502064829 | 13 | 97 | 0.0 | 4.8 | 0.00 | 0.00 | 0.00 | 71 | 1015.6 |
| 20260502064322 | 13 | 98 | 0.0 | 4.8 | 0.00 | 0.00 | 0.00 | 71 | 1015.8 |
| 20260502063813 | 13 | 102 | 1.6 | 1.6 | 0.00 | 0.00 | 0.00 | 73 | 1015.8 |
| 20260502063325 | 13 | 96 | 0.0 | 0.0 | 0.00 | 0.00 | 0.00 | 74 | 1015.8 |
| 20260502062817 | 13 | 96 | 0.0 | 0.0 | 0.00 | 0.00 | 0.00 | 74 | 1015.8 |
| 20260502062330 | 13 | 96 | 0.0 | 0.0 | 0.00 | 0.00 | 0.00 | 74 | 1015.8 |
| 20260502061841 | 13 | 96 | 0.0 | 0.0 | 0.00 | 0.00 | 0.00 | 74 | 1015.9 |
| 20260502061330 | 13 | 96 | 0.0 | 0.0 | 0.00 | 0.00 | 0.00 | 73 | 1015.9 |
| 20260502060826 | 13 | 96 | 0.0 | 0.0 | 0.00 | 0.00 | 0.00 | 73 | 1015.9 |
| 20260502060318 | 13 | 96 | 0.0 | 0.0 | 0.00 | 0.00 | 0.00 | 71 | 1015.9 |
| 20260502055829 | 13 | 96 | 0.0 | 0.0 | 0.00 | 0.00 | 0.00 | 70 | 1015.9 |
| 20260502055321 | 13 | 96 | 0.0 | 0.0 | 0.00 | 0.00 | 0.00 | 70 | 1015.9 |
| 20260502054833 | 13 | 96 | 0.0 | 0.0 | 0.00 | 0.00 | 0.00 | 70 | 1015.7 |
| 20260502054326 | 14 | 96 | 0.0 | 1.6 | 0.00 | 0.00 | 0.00 | 69 | 1015.7 |
| 20260502053818 | 14 | 96 | 0.0 | 1.6 | 0.00 | 0.00 | 0.00 | 69 | 1015.9 |
| 20260502053331 | 14 | 95 | 0.0 | 0.0 | 0.00 | 0.00 | 0.00 | 68 | 1015.9 |
| 20260502052843 | 14 | 95 | 0.0 | 0.0 | 0.00 | 0.00 | 0.00 | 67 | 1015.8 |
| 20260502052335 | 15 | 95 | 0.0 | 1.6 | 0.00 | 0.00 | 0.00 | 67 | 1015.9 |
| 20260502051831 | 15 | 95 | 0.0 | 1.6 | 0.00 | 0.00 | 0.00 | 66 | 1015.9 |
| 20260502051322 | 15 | 96 | 0.0 | 1.6 | 0.00 | 0.00 | 0.00 | 66 | 1015.9 |
| 20260502050815 | 15 | 12 | 0.0 | 3.2 | 0.00 | 0.00 | 0.00 | 66 | 1015.8 |
| 20260502050327 | 15 | 100 | 1.6 | 3.2 | 0.00 | 0.00 | 0.00 | 66 | 1015.8 |
| 20260502045819 | 15 | 103 | 0.0 | 0.0 | 0.00 | 0.00 | 0.00 | 65 | 1015.8 |
| 20260502045332 | 15 | 102 | 0.0 | 1.6 | 0.00 | 0.00 | 0.00 | 65 | 1015.6 |
| 20260502044825 | 15 | 102 | 0.0 | 1.6 | 0.00 | 0.00 | 0.00 | 64 | 1015.5 |
| 20260502044336 | 15 | 102 | 0.0 | 0.0 | 0.00 | 0.00 | 0.00 | 64 | 1015.6 |
| 20260502043828 | 15 | 102 | 0.0 | 0.0 | 0.00 | 0.00 | 0.00 | 64 | 1015.5 |
| 20260502043323 | 15 | 102 | 0.0 | 0.0 | 0.00 | 0.00 | 0.00 | 64 | 1015.4 |
| 20260502042817 | 15 | 102 | 0.0 | 1.6 | 0.00 | 0.00 | 0.00 | 63 | 1015.5 |
| 20260502042329 | 16 | 102 | 0.0 | 1.6 | 0.00 | 0.00 | 0.00 | 63 | 1015.5 |
| 20260502041841 | 16 | 158 | 0.0 | 1.6 | 0.00 | 0.00 | 0.00 | 62 | 1015.4 |
| 20260502041331 | 16 | 112 | 0.0 | 0.0 | 0.00 | 0.00 | 0.00 | 62 | 1015.4 |
| 20260502040823 | 16 | 56 | 0.0 | 1.6 | 0.00 | 0.00 | 0.00 | 61 | 1015.3 |
| 20260502040315 | 16 | 56 | 0.0 | 3.2 | 0.00 | 0.00 | 0.00 | 60 | 1015.2 |
| 20260502035828 | 16 | 76 | 0.0 | 12.9 | 0.00 | 0.00 | 0.00 | 60 | 1015.0 |
| 20260502035323 | 16 | 92 | 0.0 | 12.9 | 0.00 | 0.00 | 0.00 | 59 | 1015.0 |
| 20260502034815 | 16 | 82 | 3.2 | 9.7 | 0.00 | 0.00 | 0.00 | 58 | 1015.0 |
| 20260502034325 | 16 | 52 | 0.0 | 9.7 | 0.00 | 0.00 | 0.00 | 57 | 1015.0 |
| 20260502033838 | 17 | 115 | 3.2 | 14.5 | 0.00 | 0.00 | 0.00 | 57 | 1014.9 |
| 20260502033330 | 17 | 22 | 6.4 | 14.5 | 0.00 | 0.00 | 0.00 | 56 | 1014.7 |
| 20260502032842 | 17 | 46 | 4.8 | 11.3 | 0.00 | 0.00 | 0.00 | 55 | 1014.7 |
| 20260502032332 | 17 | 89 | 3.2 | 14.5 | 0.00 | 0.00 | 0.00 | 55 | 1014.7 |
| 20260502031844 | 17 | 34 | 3.2 | 9.7 | 0.00 | 0.00 | 0.00 | 55 | 1014.5 |
| 20260502031336 | 17 | 330 | 1.6 | 8.0 | 0.00 | 0.00 | 0.00 | 58 | 1014.7 |
| 20260502030828 | 18 | 302 | 0.0 | 6.4 | 0.00 | 0.00 | 0.00 | 56 | 1014.6 |
| 20260502030320 | 18 | 267 | 1.6 | 9.7 | 0.00 | 0.00 | 0.00 | 57 | 1014.4 |
| 20260502025817 | 18 | 22 | 4.8 | 9.7 | 0.00 | 0.00 | 0.00 | 56 | 1014.3 |
| 20260502025330 | 18 | 340 | 1.6 | 12.9 | 0.00 | 0.00 | 0.00 | 57 | 1014.3 |
| 20260502024824 | 18 | 298 | 3.2 | 12.9 | 0.00 | 0.00 | 0.00 | 55 | 1014.3 |
| 20260502024316 | 18 | 132 | 3.2 | 11.3 | 0.00 | 0.00 | 0.00 | 54 | 1014.2 |
| 20260502023827 | 18 | 32 | 3.2 | 9.7 | 0.00 | 0.00 | 0.00 | 54 | 1014.3 |
| 20260502023319 | 19 | 81 | 3.2 | 12.9 | 0.00 | 0.00 | 0.00 | 54 | 1014.1 |
| 20260502022832 | 19 | 354 | 3.2 | 12.9 | 0.00 | 0.00 | 0.00 | 54 | 1014.0 |
| 20260502022344 | 19 | 46 | 4.8 | 9.7 | 0.00 | 0.00 | 0.00 | 54 | 1013.8 |
| 20260502021819 | 20 | 325 | 4.8 | 9.7 | 0.00 | 0.00 | 0.00 | 54 | 1013.8 |
| 20260502021330 | 20 | 13 | 1.6 | 8.0 | 0.00 | 0.00 | 0.00 | 54 | 1013.7 |
| 20260502020822 | 20 | 53 | 1.6 | 9.7 | 0.00 | 0.00 | 0.00 | 54 | 1013.6 |
| 20260502020332 | 20 | 39 | 3.2 | 11.3 | 0.00 | 0.00 | 0.00 | 53 | 1013.4 |
| 20260502015823 | 20 | 8 | 6.4 | 16.1 | 0.00 | 0.00 | 0.00 | 52 | 1013.4 |
| 20260502015315 | 21 | 39 | 4.8 | 16.1 | 0.00 | 0.00 | 0.00 | 52 | 1013.4 |
| 20260502014827 | 21 | 309 | 3.2 | 9.7 | 0.00 | 0.00 | 0.00 | 52 | 1013.4 |
| 20260502014319 | 21 | 77 | 4.8 | 9.7 | 0.00 | 0.00 | 0.00 | 51 | 1013.3 |
| 20260502013831 | 21 | 328 | 1.6 | 8.0 | 0.00 | 0.00 | 0.00 | 50 | 1013.4 |
| 20260502013327 | 21 | 309 | 1.6 | 11.3 | 0.00 | 0.00 | 0.00 | 50 | 1013.3 |
| 20260502012819 | 22 | 161 | 1.6 | 11.3 | 0.00 | 0.00 | 0.00 | 49 | 1013.3 |
| 20260502012330 | 22 | 67 | 3.2 | 11.3 | 0.00 | 0.00 | 0.00 | 49 | 1013.3 |
| 20260502011822 | 22 | 277 | 4.8 | 11.3 | 0.00 | 0.00 | 0.00 | 49 | 1013.2 |
| 20260502011314 | 22 | 323 | 1.6 | 9.7 | 0.00 | 0.00 | 0.00 | 49 | 1013.2 |
| 20260502010826 | 22 | 263 | 3.2 | 9.7 | 0.00 | 0.00 | 0.00 | 48 | 1013.1 |
| 20260502010317 | 23 | 295 | 1.6 | 11.3 | 0.00 | 0.00 | 0.00 | 47 | 1013.1 |
| 20260502005828 | 23 | 315 | 3.2 | 11.3 | 0.00 | 0.00 | 0.00 | 47 | 1013.0 |
| 20260502005323 | 23 | 290 | 4.8 | 9.7 | 0.00 | 0.00 | 0.00 | 46 | 1012.9 |
| 20260502004815 | 23 | 272 | 3.2 | 14.5 | 0.00 | 0.00 | 0.00 | 46 | 1013.0 |
| 20260502004328 | 23 | 278 | 4.8 | 14.5 | 0.00 | 0.00 | 0.00 | 45 | 1013.1 |
| 20260502003818 | 23 | 299 | 4.8 | 12.9 | 0.00 | 0.00 | 0.00 | 45 | 1013.1 |
| 20260502003349 | 23 | 269 | 6.4 | 16.1 | 0.00 | 0.00 | 0.00 | 44 | 1013.0 |
| 20260502002819 | 23 | 274 | 3.2 | 16.1 | 0.00 | 0.00 | 0.00 | 44 | 1013.0 |
| 20260502002350 | 23 | 257 | 3.2 | 16.1 | 0.00 | 0.00 | 0.00 | 44 | 1012.9 |
| 20260502001820 | 24 | 262 | 3.2 | 14.5 | 0.00 | 0.00 | 0.00 | 44 | 1012.9 |
| 20260502001331 | 24 | 257 | 3.2 | 11.3 | 0.00 | 0.00 | 0.00 | 42 | 1012.8 |
| 20260502000823 | 24 | 288 | 4.8 | 16.1 | 0.00 | 0.00 | 0.00 | 42 | 1012.8 |
| 20260502000317 | 24 | 245 | 4.8 | 16.1 | 0.00 | 0.00 | 0.00 | 42 | 1012.8 |
| 20260501235828 | 24 | 315 | 1.6 | 16.1 | 0.00 | 0.00 | 0.00 | 42 | 1012.8 |
| 20260501235320 | 24 | 281 | 6.4 | 16.1 | 0.00 | 0.00 | 0.00 | 41 | 1012.8 |
| 20260501234831 | 25 | 281 | 8.0 | 17.7 | 0.00 | 0.00 | 0.00 | 40 | 1012.8 |
| 20260501234322 | 25 | 257 | 8.0 | 17.7 | 0.00 | 0.00 | 0.00 | 40 | 1012.8 |
| 20260501233854 | 25 | 281 | 4.8 | 11.3 | 0.00 | 0.00 | 0.00 | 39 | 1012.8 |
| 20260501233325 | 25 | 285 | 6.4 | 12.9 | 0.00 | 0.00 | 0.00 | 39 | 1012.9 |
| 20260501232817 | 25 | 277 | 4.8 | 12.9 | 0.00 | 0.00 | 0.00 | 39 | 1012.9 |
| 20260501232349 | 25 | 299 | 4.8 | 14.5 | 0.00 | 0.00 | 0.00 | 39 | 1013.0 |
| 20260501231820 | 25 | 274 | 6.4 | 16.1 | 0.00 | 0.00 | 0.00 | 39 | 1013.0 |
| 20260501231315 | 25 | 247 | 1.6 | 16.1 | 0.00 | 0.00 | 0.00 | 38 | 1013.1 |
| 20260501230827 | 25 | 241 | 1.6 | 11.3 | 0.00 | 0.00 | 0.00 | 38 | 1013.1 |
| 20260501230338 | 25 | 273 | 4.8 | 11.3 | 0.00 | 0.00 | 0.00 | 38 | 1013.2 |
| 20260501225829 | 25 | 285 | 3.2 | 11.3 | 0.00 | 0.00 | 0.00 | 38 | 1013.3 |
| 20260501225339 | 25 | 232 | 4.8 | 11.3 | 0.00 | 0.00 | 0.00 | 37 | 1013.2 |
| 20260501224830 | 25 | 310 | 1.6 | 11.3 | 0.00 | 0.00 | 0.00 | 37 | 1013.4 |
| 20260501224322 | 25 | 274 | 4.8 | 11.3 | 0.00 | 0.00 | 0.00 | 36 | 1013.4 |
| 20260501223814 | 25 | 270 | 4.8 | 14.5 | 0.00 | 0.00 | 0.00 | 37 | 1013.4 |
| 20260501223326 | 25 | 256 | 3.2 | 12.9 | 0.00 | 0.00 | 0.00 | 37 | 1013.7 |
| 20260501222821 | 25 | 207 | 6.4 | 12.9 | 0.00 | 0.00 | 0.00 | 35 | 1013.7 |
| 20260501222333 | 25 | 223 | 6.4 | 12.9 | 0.00 | 0.00 | 0.00 | 36 | 1013.7 |
| 20260501221823 | 25 | 97 | 1.6 | 12.9 | 0.00 | 0.00 | 0.00 | 37 | 1013.8 |
| 20260501221315 | 25 | 250 | 4.8 | 12.9 | 0.00 | 0.00 | 0.00 | 37 | 1013.9 |
| 20260501220847 | 25 | 243 | 1.6 | 11.3 | 0.00 | 0.00 | 0.00 | 37 | 1013.9 |
| 20260501220316 | 25 | 288 | 3.2 | 9.7 | 0.00 | 0.00 | 0.00 | 38 | 1014.0 |
| 20260501215827 | 25 | 230 | 4.8 | 12.9 | 0.00 | 0.00 | 0.00 | 39 | 1014.2 |
| 20260501215319 | 25 | 224 | 3.2 | 12.9 | 0.00 | 0.00 | 0.00 | 40 | 1014.2 |
| 20260501214831 | 24 | 219 | 4.8 | 11.3 | 0.00 | 0.00 | 0.00 | 41 | 1014.3 |
| 20260501214322 | 24 | 250 | 1.6 | 11.3 | 0.00 | 0.00 | 0.00 | 38 | 1014.4 |
| 20260501213818 | 25 | 241 | 4.8 | 11.3 | 0.00 | 0.00 | 0.00 | 40 | 1014.5 |
| 20260501213328 | 24 | 262 | 1.6 | 11.3 | 0.00 | 0.00 | 0.00 | 38 | 1014.5 |
| 20260501212817 | 24 | 268 | 3.2 | 11.3 | 0.00 | 0.00 | 0.00 | 40 | 1014.5 |
| 20260501212349 | 24 | 240 | 3.2 | 11.3 | 0.00 | 0.00 | 0.00 | 40 | 1014.6 |
| 20260501211820 | 24 | 257 | 4.8 | 11.3 | 0.00 | 0.00 | 0.00 | 40 | 1014.7 |
| 20260501211352 | 24 | 300 | 4.8 | 11.3 | 0.00 | 0.00 | 0.00 | 38 | 1014.7 |
| 20260501210821 | 24 | 236 | 1.6 | 11.3 | 0.00 | 0.00 | 0.00 | 38 | 1014.8 |
| 20260501210332 | 24 | 312 | 1.6 | 6.4 | 0.00 | 0.00 | 0.00 | 41 | 1014.8 |
| 20260501205822 | 24 | 250 | 3.2 | 8.0 | 0.00 | 0.00 | 0.00 | 40 | 1014.9 |
| 20260501205313 | 23 | 259 | 4.8 | 8.0 | 0.00 | 0.00 | 0.00 | 41 | 1015.0 |
| 20260501204825 | 23 | 294 | 3.2 | 8.0 | 0.00 | 0.00 | 0.00 | 39 | 1015.0 |
| 20260501204317 | 23 | 263 | 1.6 | 11.3 | 0.00 | 0.00 | 0.00 | 43 | 1015.0 |
| 20260501203849 | 23 | 201 | 3.2 | 11.3 | 0.00 | 0.00 | 0.00 | 46 | 1015.0 |
| 20260501203344 | 22 | 330 | 1.6 | 8.0 | 0.00 | 0.00 | 0.00 | 45 | 1015.3 |
| 20260501202815 | 22 | 305 | 1.6 | 9.7 | 0.00 | 0.00 | 0.00 | 46 | 1015.3 |
| 20260501202326 | 22 | 266 | 1.6 | 11.3 | 0.00 | 0.00 | 0.00 | 47 | 1015.3 |
| 20260501201818 | 22 | 257 | 6.4 | 11.3 | 0.00 | 0.00 | 0.00 | 45 | 1015.5 |
| 20260501201329 | 22 | 233 | 3.2 | 8.0 | 0.00 | 0.00 | 0.00 | 45 | 1015.5 |
| 20260501200841 | 22 | 271 | 1.6 | 9.7 | 0.00 | 0.00 | 0.00 | 47 | 1015.5 |
| 20260501200332 | 21 | 278 | 3.2 | 9.7 | 0.00 | 0.00 | 0.00 | 47 | 1015.6 |
| 20260501195824 | 21 | 228 | 1.6 | 6.4 | 0.00 | 0.00 | 0.00 | 47 | 1015.6 |
| 20260501195316 | 21 | 262 | 3.2 | 8.0 | 0.00 | 0.00 | 0.00 | 48 | 1015.7 |
| 20260501194827 | 21 | 267 | 1.6 | 8.0 | 0.00 | 0.00 | 0.00 | 48 | 1015.8 |
| 20260501194323 | 21 | 293 | 0.0 | 9.7 | 0.00 | 0.00 | 0.00 | 50 | 1015.8 |
| 20260501193814 | 20 | 277 | 3.2 | 9.7 | 0.00 | 0.00 | 0.00 | 49 | 1015.9 |
| 20260501193325 | 20 | 149 | 0.0 | 9.7 | 0.00 | 0.00 | 0.00 | 52 | 1016.0 |
| 20260501192816 | 20 | 272 | 1.6 | 6.4 | 0.00 | 0.00 | 0.00 | 49 | 1016.0 |
| 20260501192328 | 20 | 277 | 1.6 | 11.3 | 0.00 | 0.00 | 0.00 | 51 | 1016.1 |
| 20260501191820 | 20 | 234 | 1.6 | 6.4 | 0.00 | 0.00 | 0.00 | 53 | 1016.2 |